Regional Weather Roundup
Issued by NWS Memphis, TN

Home | Current Version | Previous Version | Text Only | Print | Product List | Glossary On
Versions: 1 2 3 4 5 6 7 8 9 10 11 12 13 14 15 16 17 18 19 20 21 22 23 24 25 26 27 28 29 30 31 32 33 34 35 36 37 38 39 40 41 42 43 44 45 46 47 48 49 50
000
ASUS44 KMEG 300810
RWRMEG
MEMPHIS CWA HOURLY WEATHER ROUNDUP
NATIONAL WEATHER SERVICE MEMPHIS TN
300 AM CDT TUE JUN 30 2015

...WEST TENNESSEE...

CITY           SKY/WX    TMP DP  RH WIND       PRES   REMARKS
MEMPHIS INTL   MOCLDY    72  65  78 VRB6      29.91S
NWS MEMPHIS      N/A     69 N/A N/A MISG        N/A
JACKSON        CLEAR     71  67  87 S5        29.89F
LEXINGTON      CLEAR     68  66  94 S5        29.90S
DYERSBURG        N/A    N/A N/A N/A MISG        N/A
PARIS          CLEAR     66  64  94 CALM      29.88F


...EASTERN ARKANSAS...

CITY           SKY/WX    TMP DP  RH WIND       PRES   REMARKS
JONESBORO      CLEAR     73  68  84 W3        29.90S
WEST MEMPHIS     N/A     72  66  81 S6        29.90F
BATESVILLE     CLEAR     70  64  83 CALM      29.93R
NEWPORT        CLEAR     74  69  84 W3        29.92S
WALNUT RIDGE   CLEAR     73  64  73 W5        29.91S
BLYTHEVILLE    CLEAR     75  70  84 SW8       29.89F
SEARCY         PTCLDY    72  70  93 W5        29.93F
STUTTGART      MOCLDY    77  73  88 W6        29.92S
PINE BLUFF     MOCLDY    77  74  90 CALM      29.93S
MONTICELLO     PTCLDY    78  73  84 W9        29.95S


...NORTH MISSISSIPPI...

CITY           SKY/WX    TMP DP  RH WIND       PRES   REMARKS
TUPELO         MOCLDY    74  72  93 SW6       29.91F
OXFORD         MOCLDY    72  63  73 NW7       29.95R
OLIVE BRANCH   CLEAR     72  68  88 SW7       29.93S
TUNICA         CLOUDY    72  66  83 SW6       29.93S
CLARKSDALE     CLOUDY    66  64  94 SE10      29.93F
CORINTH        MOCLDY    73  70  88 NE3       29.90F
GREENWOOD      PTCLDY    73  69  87 S6        29.96R
COLUMBUS       PTCLDY    76  71  86 SW8       29.94S
STARKVILLE     FAIR      72  70  94 CALM      29.96R
GOLDEN TRIANGL PTCLDY    75  70  83 SW6       29.96R


...SOUTHEAST MISSOURI...

CITY           SKY/WX    TMP DP  RH WIND       PRES   REMARKS
WEST PLAINS    CLEAR     67  63  87 W5        29.96F
POPLAR BLUFF   CLEAR     71  67  87 CALM      29.89F
CAPE GIRARDEAU CLEAR     69  67  93 W5        29.88F


...NORTHWEST ALABAMA...

CITY           SKY/WX    TMP DP  RH WIND       PRES   REMARKS
MUSCLE SHOALS  LGT RAIN  75  67  76 W5        29.94F


...MIDDLE TENNESSEE...

CITY           SKY/WX    TMP DP  RH WIND       PRES   REMARKS
NASHVILLE      MOCLDY    71  70  96 CALM      29.90F
CLARKSVILLE    CLEAR     68  67  96 S3        29.88S
COLUMBIA       CLEAR     70  70 100 CALM      29.91S


...WESTERN KENTUCKY...

CITY           SKY/WX    TMP DP  RH WIND       PRES   REMARKS
PADUCAH        CLEAR     70  66  87 SW3       29.86F
FORT CAMPBELL  CLEAR     69  67  94 S3        29.87F


...CENTRAL ARKANSAS...

CITY           SKY/WX    TMP DP  RH WIND       PRES   REMARKS
LITTLE ROCK    MOCLDY    78  68  71 SW6       29.92S


SKY/WX REPORTED AS FAIR MEANS FEW OR NO CLOUDS BELOW
12 THOUSAND FEET.



USA.gov is the U.S. government's official web portal to all federal, state and local government web resources and services.